Aeroporto :
LOGIN :

Iscrizione | Disclaimer

   EN    FR    IT 

 










Sommario :    VFR   VFR Marginale   IFR   IFR Intensivo   IFR Molto Intensivo
Visibilità : 
Base nubi : 
>= 8 km
>= 3000ft
5 / 8 km
1000 / 3000 ft
1500m / 5 km
500 / 1000 ft
800 / 1500m
200 / 500 ft
< 800m
< 200 ft
Simboli :   Temporali  Nebbia  Neve Forte  Precipitazioni Forti  Vento > 20 kt
SIGMETs :   Varie  Temporali  Ghiacco  Turbolenza  Onda orograficha  Ceneri Vulcaniche






- Altitudine del aeroporto : 49 ft
- Codice IATA : AOI


LIPY - Ancona Falconara

ULTIMO METAR :
  • 180350Z AUTO 19005KT 9999 BKN053/// 11/02 Q1023

METARs OBSOLETI :
  • 180250Z AUTO 21010KT 9999 SCT059/// 11/02 Q1023
  • 180150Z AUTO 22013KT 9999 FEW054/// 11/03 Q1023

TAF TAF LIPY
Valido dal 18 a 00 ore il 19 a 00 ore UTC


172300Z 1800/1824 22008KT CAVOK
TEMPO 1800/1806 4000 BR
BECMG 1810/1812 33010KT



MetMap, La meteo Aeronautica in un colpo d'occhio ! - Copyright ORBIFLY Dicembre 2007 - Disclaimer

ORBIFLY MET'MAP TEAM :

Programmazione e sviluppo : Alexandra Zaïnal
Concezione : Baudouin d'Aumeries
Aiuto per la programmazione : Marc-Olivier Méhu
Supporto tecnico e logistico : Manuel Goepfert
Aiuto per la traduzione : Arnaldo La Scala

Contatto : metmap@orbifly.com




FONTI E CREDITI :

   NOAA